Form
PeriodRunnersWinsPlacesStrikerateProfit
Fortnight12128%115.00
Season20510265%142.50
Statistics
AgeRunnersWinsStrikerateProfit
2yo-200%2.00
3yo-600%6.00
4yo-500%5.00
Recent Rides
DateTrackMountPosSPResult
18/05/19ThirskRoyal Brave8/1420/1View
16/05/19YorkHenley21/2180/1View
15/05/19YarmouthMajestic Moon3/89/1View
15/05/19YarmouthTelekinetic4/1420/1View
14/05/19BeverleyDeeds Not Words8/1512/1View
13/05/19MusselburghSiyahamba2/87/1View
11/05/19ThirskNeigh Dramas11/1333/1View
11/05/19ThirskStoneyford Lane11/199/1View
11/05/19NottinghamLady Monica1/12125/1View
10/05/19WolverhamptonSwiss Miss9/9100/1View
10/05/19WolverhamptonBilliebrookedit9/1250/1View
07/05/19WetherbyRebel Cause9/1020/1View
04/05/19ThirskHenley10/1320/1View
04/05/19ThirskRaselasad13/1620/1View
02/05/19MusselburghI Am Dandy7/116/1View
02/05/19MusselburghBorn Fighting7/925/1View
01/05/19SouthwellLove Your Work1/76/1View
01/05/19SouthwellMajestic Moon5/86/1View
30/04/19BrightonWilson5/511/2View
30/04/19BrightonAmy Kane10/11100/1View
29/04/19ThirskBilly Wedge12/1620/1View
29/04/19SouthwellSiyahamba3/148/1View
29/04/19SouthwellQuarto Cavallo12/1250/1View
27/04/19DoncasterGlan Y Gors15/1650/1View
27/04/19HaydockTidal Point3/9100/1View